{"data":{"norad_id":51623,"intl_designator":"2022-012B","name":"ONEWEB-0411","alt_names":[],"object_type":"PAYLOAD","status":"ACTIVE","operator":null,"country":"UK","launch_date":"2022-02-10","launch_site_code":"FRGUI","launch_vehicle":null,"mission":null,"orbit_class":"UNKNOWN","rcs_meters":null,"size_class":null,"mass_kg":null,"dimensions":null,"purposes":["comms"],"wikipedia_slug":null,"has_3d_model":false,"image_url":null,"decayed_at":null,"tle_current":{"epoch":"2026-05-25T02:32:16.413792Z","epoch_age_seconds":63228,"freshness":"FRESH","line1":"1 51623U 22012B   26145.10574553 -.00000143  00000+0 -44639-3 0  9990","line2":"2 51623  87.8856  40.8601 0001252  82.8915 277.2354 13.10370709206260","mean_motion":13.10370709,"eccentricity":0.0001252,"inclination_deg":87.8856,"raan_deg":40.8601,"arg_perigee_deg":82.8915,"mean_anomaly_deg":277.2354,"bstar":-0.00044639,"rev_number":20626,"period_min":109.89256628751,"perigee_km":1220.773798631,"apogee_km":1222.6768041513,"semimajor_km":7599.8623013911,"source":"CELESTRAK","updated_at":"2026-05-25T13:38:22.575774Z"}}}